Location: Crescent
(42.8242°N, 73.7329°W)
Time: 06:03:52
(UTC+00:00)

A-11 Canister half - Pass Details

Date: 22 February 2026
Orbit: 1524 x 1683 km, 47.3° (Epoch: 14 March)

Event Time Altitude Azimuth Distance (km) Brightness Sun altitude
Rises 02:04:37 0° 295° (WNW) 4,679 12.5 -38.5°
Reaches altitude 10° 02:07:40 10° 293° (WNW) 3,693 11.7 -39.0°
Enters shadow 02:15:35 62° 252° (WSW) 1,694 9.1 -40.3°
